| time (UTC) | temp F | wind direction | speed MPH | gust MPH | rain 1hr in | rain 24hr in | rain mn in | humidity % | barometer mb |
| 20260906163451 | 56 | 335 | 6.0 | 8.0 | 0.00 | 0.00 | 0.00 | 87 | 1021.6 |
| 20260906162950 | 56 | 325 | 4.0 | 9.0 | 0.00 | 0.00 | 0.00 | 87 | 1021.7 |
| 20260906162448 | 56 | 351 | 5.0 | 9.0 | 0.00 | 0.00 | 0.00 | 88 | 1021.6 |
| 20260906161943 | 56 | 350 | 4.0 | 8.0 | 0.00 | 0.00 | 0.00 | 88 | 1021.7 |
| 20260906161437 | 55 | 336 | 4.0 | 9.0 | 0.00 | 0.00 | 0.00 | 88 | 1021.7 |
| 20260906160931 | 55 | 16 | 7.0 | 11.0 | 0.00 | 0.00 | 0.00 | 88 | 1021.7 |
| 20260906160430 | 55 | 333 | 5.0 | 11.0 | 0.00 | 0.00 | 0.00 | 88 | 1021.7 |
| 20260906155928 | 55 | 349 | 5.0 | 8.0 | 0.00 | 0.00 | 0.00 | 87 | 1021.8 |
| 20260906155422 | 55 | 342 | 5.0 | 8.0 | 0.00 | 0.00 | 0.00 | 87 | 1022.0 |
| 20260906154919 | 55 | 335 | 8.0 | 11.0 | 0.00 | 0.00 | 0.00 | 88 | 1022.0 |
| 20260906154418 | 55 | 357 | 10.0 | 11.0 | 0.00 | 0.00 | 0.00 | 89 | 1021.8 |
| 20260906153917 | 55 | 352 | 8.0 | 13.0 | 0.00 | 0.00 | 0.00 | 90 | 1022.1 |
| 20260906153416 | 55 | 331 | 8.0 | 13.0 | 0.00 | 0.00 | 0.00 | 90 | 1022.1 |
| 20260906152911 | 55 | 350 | 10.0 | 14.0 | 0.00 | 0.00 | 0.00 | 89 | 1022.1 |
| 20260906152406 | 55 | 334 | 10.0 | 13.0 | 0.00 | 0.00 | 0.00 | 89 | 1022.2 |
| 20260906151906 | 56 | 325 | 7.0 | 14.0 | 0.00 | 0.00 | 0.00 | 88 | 1022.2 |
| 20260906151401 | 56 | 3 | 9.0 | 11.0 | 0.00 | 0.00 | 0.00 | 88 | 1022.4 |
| 20260906150857 | 56 | 327 | 6.0 | 9.0 | 0.00 | 0.00 | 0.00 | 87 | 1022.4 |
| 20260906150352 | 56 | 347 | 9.0 | 11.0 | 0.00 | 0.00 | 0.00 | 86 | 1022.3 |
| 20260906145851 | 57 | 332 | 8.0 | 9.0 | 0.00 | 0.00 | 0.00 | 86 | 1022.4 |
| 20260906145350 | 57 | 349 | 6.0 | 9.0 | 0.00 | 0.00 | 0.00 | 86 | 1022.6 |
| 20260906144845 | 59 | 319 | 6.0 | 9.0 | 0.00 | 0.00 | 0.00 | 84 | 1022.7 |
| 20260906144340 | 59 | 298 | 3.0 | 4.0 | 0.00 | 0.00 | 0.00 | 85 | 1022.6 |
| 20260906143840 | 60 | 249 | 3.0 | 4.0 | 0.00 | 0.00 | 0.00 | 84 | 1022.8 |
| 20260906143336 | 60 | 285 | 1.0 | 2.0 | 0.00 | 0.00 | 0.00 | 84 | 1022.7 |
| 20260906142832 | 60 | 294 | 1.0 | 2.0 | 0.00 | 0.00 | 0.00 | 83 | 1022.6 |
| 20260906142327 | 60 | 271 | 0.0 | 1.0 | 0.00 | 0.00 | 0.00 | 84 | 1022.3 |
| 20260906141826 | 60 | 302 | 1.0 | 2.0 | 0.00 | 0.00 | 0.00 | 83 | 1022.2 |
| 20260906141321 | 60 | 264 | 1.0 | 1.0 | 0.00 | 0.00 | 0.00 | 83 | 1022.1 |
| 20260906140819 | 60 | 343 | 2.0 | 4.0 | 0.00 | 0.00 | 0.00 | 84 | 1021.8 |
| 20260906140315 | 60 | 40 | 2.0 | 3.0 | 0.00 | 0.00 | 0.00 | 83 | 1022.1 |
| 20260906135812 | 60 | 51 | 2.0 | 8.0 | 0.00 | 0.00 | 0.00 | 84 | 1021.7 |
| 20260906135308 | 60 | 57 | 5.0 | 6.0 | 0.00 | 0.00 | 0.00 | 83 | 1022.1 |
| 20260906134803 | 60 | 48 | 4.0 | 4.0 | 0.00 | 0.00 | 0.00 | 83 | 1022.2 |
| 20260906134258 | 60 | 308 | 1.0 | 3.0 | 0.00 | 0.00 | 0.00 | 83 | 1022.2 |
| 20260906133753 | 60 | 52 | 2.0 | 6.0 | 0.00 | 0.00 | 0.00 | 84 | 1022.4 |
| 20260906133249 | 60 | 42 | 5.0 | 7.0 | 0.00 | 0.00 | 0.00 | 83 | 1022.0 |
| 20260906132744 | 60 | 67 | 4.0 | 6.0 | 0.00 | 0.00 | 0.00 | 83 | 1021.8 |
| 20260906132239 | 60 | 49 | 5.0 | 8.0 | 0.00 | 0.00 | 0.00 | 83 | 1021.7 |
| 20260906131735 | 59 | 75 | 2.0 | 7.0 | 0.00 | 0.00 | 0.00 | 84 | 1022.1 |
| 20260906131230 | 59 | 20 | 3.0 | 4.0 | 0.00 | 0.00 | 0.00 | 85 | 1022.0 |
| 20260906130726 | 59 | 234 | 1.0 | 2.0 | 0.00 | 0.00 | 0.00 | 85 | 1022.1 |
| 20260906130220 | 59 | 310 | 2.0 | 4.0 | 0.00 | 0.00 | 0.00 | 85 | 1022.1 |
| 20260906125719 | 59 | 290 | 2.0 | 6.0 | 0.00 | 0.00 | 0.00 | 85 | 1022.1 |
| 20260906125217 | 59 | 319 | 2.0 | 7.0 | 0.00 | 0.00 | 0.00 | 85 | 1022.0 |
| 20260906124712 | 59 | 345 | 3.0 | 4.0 | 0.00 | 0.00 | 0.00 | 85 | 1022.1 |
| 20260906124208 | 59 | 319 | 4.0 | 4.0 | 0.00 | 0.00 | 0.00 | 85 | 1022.2 |
| 20260906123706 | 58 | 344 | 2.0 | 6.0 | 0.00 | 0.00 | 0.00 | 85 | 1022.3 |
| 20260906123202 | 58 | 337 | 3.0 | 4.0 | 0.00 | 0.00 | 0.00 | 86 | 1022.2 |
| 20260906122701 | 58 | 353 | 3.0 | 6.0 | 0.00 | 0.00 | 0.00 | 86 | 1022.2 |
| 20260906122157 | 58 | 329 | 3.0 | 4.0 | 0.00 | 0.00 | 0.00 | 86 | 1022.2 |
| 20260906121653 | 58 | 348 | 3.0 | 7.0 | 0.00 | 0.00 | 0.00 | 85 | 1021.8 |
| 20260906121149 | 58 | 144 | 3.0 | 7.0 | 0.00 | 0.00 | 0.00 | 85 | 1021.5 |
| 20260906120645 | 58 | 336 | 4.0 | 6.0 | 0.00 | 0.00 | 0.00 | 85 | 1021.5 |
| 20260906120142 | 58 | 335 | 3.0 | 4.0 | 0.00 | 0.00 | 0.00 | 85 | 1021.7 |
| 20260906115642 | 58 | 355 | 4.0 | 6.0 | 0.00 | 0.00 | 0.00 | 85 | 1021.8 |
| 20260906115138 | 58 | 357 | 3.0 | 4.0 | 0.00 | 0.00 | 0.00 | 85 | 1021.7 |
| 20260906114636 | 58 | 322 | 3.0 | 7.0 | 0.00 | 0.00 | 0.00 | 85 | 1021.8 |
| 20260906114131 | 58 | 344 | 4.0 | 8.0 | 0.00 | 0.00 | 0.00 | 85 | 1021.7 |
| 20260906113631 | 59 | 355 | 6.0 | 9.0 | 0.00 | 0.00 | 0.00 | 85 | 1021.7 |
| 20260906113126 | 58 | 303 | 4.0 | 4.0 | 0.00 | 0.00 | 0.00 | 85 | 1021.8 |
| 20260906112625 | 58 | 14 | 5.0 | 7.0 | 0.00 | 0.00 | 0.00 | 84 | 1021.7 |
| 20260906112123 | 58 | 333 | 3.0 | 11.0 | 0.00 | 0.00 | 0.00 | 84 | 1021.6 |
| 20260906111621 | 58 | 332 | 4.0 | 8.0 | 0.00 | 0.00 | 0.00 | 84 | 1021.7 |
| 20260906111117 | 58 | 338 | 2.0 | 7.0 | 0.00 | 0.00 | 0.00 | 84 | 1021.7 |
| 20260906110618 | 58 | 323 | 3.0 | 4.0 | 0.00 | 0.00 | 0.00 | 84 | 1021.8 |
| 20260906110118 | 58 | 322 | 4.0 | 7.0 | 0.00 | 0.00 | 0.00 | 84 | 1021.8 |
| 20260906105612 | 58 | 351 | 4.0 | 7.0 | 0.00 | 0.00 | 0.00 | 84 | 1022.0 |
| 20260906105108 | 58 | 337 | 3.0 | 7.0 | 0.00 | 0.00 | 0.00 | 85 | 1022.1 |
| 20260906104607 | 58 | 352 | 4.0 | 6.0 | 0.00 | 0.00 | 0.00 | 85 | 1022.2 |
| 20260906104101 | 58 | 355 | 4.0 | 7.0 | 0.00 | 0.00 | 0.00 | 85 | 1022.0 |
| 20260906103600 | 58 | 342 | 4.0 | 6.0 | 0.00 | 0.00 | 0.00 | 85 | 1022.0 |
| 20260906103055 | 58 | 355 | 2.0 | 4.0 | 0.00 | 0.00 | 0.00 | 85 | 1022.0 |
| 20260906102555 | 58 | 318 | 4.0 | 9.0 | 0.00 | 0.00 | 0.00 | 85 | 1022.2 |
| 20260906102050 | 58 | 350 | 5.0 | 8.0 | 0.00 | 0.00 | 0.00 | 85 | 1022.0 |
| 20260906101544 | 58 | 337 | 4.0 | 8.0 | 0.00 | 0.00 | 0.00 | 85 | 1022.1 |
| 20260906101039 | 58 | 351 | 6.0 | 8.0 | 0.00 | 0.00 | 0.00 | 85 | 1022.0 |
| 20260906100535 | 58 | 343 | 5.0 | 8.0 | 0.00 | 0.00 | 0.00 | 84 | 1022.0 |
| 20260906100035 | 58 | 331 | 4.0 | 8.0 | 0.00 | 0.00 | 0.00 | 84 | 1022.2 |
| 20260906095530 | 58 | 339 | 4.0 | 7.0 | 0.00 | 0.00 | 0.00 | 83 | 1022.3 |
| 20260906095025 | 58 | 356 | 6.0 | 8.0 | 0.00 | 0.00 | 0.00 | 83 | 1022.0 |
| 20260906094524 | 59 | 329 | 4.0 | 8.0 | 0.00 | 0.00 | 0.00 | 83 | 1022.0 |
| 20260906094020 | 59 | 326 | 4.0 | 7.0 | 0.00 | 0.00 | 0.00 | 83 | 1021.8 |
| 20260906093516 | 58 | 3 | 5.0 | 11.0 | 0.00 | 0.00 | 0.00 | 83 | 1022.0 |
| 20260906093016 | 58 | 348 | 5.0 | 10.0 | 0.00 | 0.00 | 0.00 | 83 | 1021.8 |
| 20260906092511 | 58 | 311 | 6.0 | 7.0 | 0.00 | 0.00 | 0.00 | 83 | 1021.8 |
| 20260906092006 | 58 | 18 | 4.0 | 8.0 | 0.00 | 0.00 | 0.00 | 83 | 1022.0 |
| 20260906091502 | 58 | 314 | 7.0 | 10.0 | 0.00 | 0.00 | 0.00 | 83 | 1022.1 |
| 20260906090958 | 58 | 5 | 5.0 | 9.0 | 0.00 | 0.00 | 0.00 | 83 | 1022.2 |
| 20260906090453 | 58 | 8 | 6.0 | 8.0 | 0.00 | 0.00 | 0.00 | 83 | 1022.3 |
| 20260906085953 | 59 | 341 | 4.0 | 10.0 | 0.00 | 0.00 | 0.00 | 82 | 1022.4 |
| 20260906085452 | 59 | 340 | 9.0 | 14.0 | 0.00 | 0.00 | 0.00 | 82 | 1022.3 |
| 20260906084951 | 59 | 343 | 4.0 | 10.0 | 0.00 | 0.00 | 0.00 | 81 | 1022.4 |
| 20260906084446 | 59 | 323 | 5.0 | 8.0 | 0.00 | 0.00 | 0.00 | 80 | 1022.5 |
| 20260906083945 | 59 | 327 | 5.0 | 11.0 | 0.00 | 0.00 | 0.00 | 80 | 1022.6 |
| 20260906083441 | 59 | 331 | 4.0 | 7.0 | 0.00 | 0.00 | 0.00 | 80 | 1022.8 |
| 20260906082940 | 59 | 342 | 4.0 | 6.0 | 0.00 | 0.00 | 0.00 | 80 | 1022.7 |
| 20260906082436 | 59 | 21 | 4.0 | 8.0 | 0.00 | 0.00 | 0.00 | 80 | 1022.8 |
| 20260906081931 | 59 | 319 | 3.0 | 6.0 | 0.00 | 0.00 | 0.00 | 80 | 1022.8 |
| 20260906081426 | 59 | 316 | 4.0 | 8.0 | 0.00 | 0.00 | 0.00 | 81 | 1023.0 |
| 20260906080923 | 59 | 332 | 2.0 | 4.0 | 0.00 | 0.00 | 0.00 | 81 | 1022.9 |
| 20260906080419 | 59 | 348 | 2.0 | 3.0 | 0.00 | 0.00 | 0.00 | 81 | 1023.0 |
| 20260906075919 | 58 | 305 | 1.0 | 3.0 | 0.00 | 0.00 | 0.00 | 82 | 1023.2 |
| 20260906075414 | 58 | 285 | 1.0 | 2.0 | 0.00 | 0.00 | 0.00 | 82 | 1023.2 |
| 20260906074909 | 58 | 318 | 2.0 | 3.0 | 0.00 | 0.00 | 0.00 | 82 | 1023.3 |
| 20260906074408 | 58 | 278 | 2.0 | 7.0 | 0.00 | 0.00 | 0.00 | 81 | 1023.3 |
| 20260906073908 | 58 | 329 | 2.0 | 6.0 | 0.00 | 0.00 | 0.00 | 82 | 1023.2 |
| 20260906073402 | 58 | 313 | 2.0 | 3.0 | 0.00 | 0.00 | 0.00 | 82 | 1023.0 |
| 20260906072859 | 58 | 329 | 2.0 | 4.0 | 0.00 | 0.00 | 0.00 | 83 | 1023.2 |
| 20260906072354 | 57 | 331 | 2.0 | 2.0 | 0.00 | 0.00 | 0.00 | 83 | 1023.3 |
| 20260906071850 | 57 | 328 | 3.0 | 4.0 | 0.00 | 0.00 | 0.00 | 84 | 1023.2 |
| 20260906071345 | 57 | 337 | 2.0 | 4.0 | 0.00 | 0.00 | 0.00 | 84 | 1023.3 |
| 20260906070841 | 57 | 353 | 4.0 | 6.0 | 0.00 | 0.00 | 0.00 | 85 | 1023.0 |
| 20260906070336 | 57 | 313 | 2.0 | 4.0 | 0.00 | 0.00 | 0.00 | 85 | 1023.2 |
| 20260906065832 | 57 | 316 | 2.0 | 3.0 | 0.00 | 0.00 | 0.00 | 85 | 1023.2 |
| 20260906065326 | 57 | 334 | 5.0 | 7.0 | 0.00 | 0.00 | 0.00 | 85 | 1023.3 |
| 20260906064823 | 57 | 302 | 2.0 | 4.0 | 0.00 | 0.00 | 0.00 | 84 | 1023.5 |
| 20260906064319 | 57 | 318 | 5.0 | 9.0 | 0.00 | 0.00 | 0.00 | 84 | 1023.4 |
| 20260906063818 | 57 | 1 | 6.0 | 8.0 | 0.00 | 0.00 | 0.00 | 83 | 1023.4 |
| 20260906063314 | 58 | 3 | 2.0 | 4.0 | 0.00 | 0.00 | 0.00 | 82 | 1023.7 |
| 20260906062809 | 58 | 308 | 1.0 | 4.0 | 0.00 | 0.00 | 0.00 | 82 | 1023.8 |
| 20260906062308 | 58 | 290 | 1.0 | 2.0 | 0.00 | 0.00 | 0.00 | 82 | 1023.9 |
| 20260906061804 | 58 | 289 | 2.0 | 3.0 | 0.00 | 0.00 | 0.00 | 81 | 1023.9 |
| 20260906061300 | 58 | 301 | 1.0 | 3.0 | 0.00 | 0.00 | 0.00 | 81 | 1023.9 |
| 20260906060755 | 58 | 340 | 4.0 | 7.0 | 0.00 | 0.00 | 0.00 | 80 | 1023.8 |
| 20260906060253 | 58 | 333 | 5.0 | 7.0 | 0.00 | 0.00 | 0.00 | 79 | 1023.7 |
| 20260906055748 | 58 | 310 | 3.0 | 6.0 | 0.00 | 0.01 | 0.01 | 78 | 1023.7 |
| 20260906055243 | 59 | 335 | 2.0 | 9.0 | 0.00 | 0.01 | 0.01 | 78 | 1023.6 |
| 20260906054738 | 59 | 326 | 3.0 | 8.0 | 0.00 | 0.01 | 0.01 | 78 | 1023.5 |
| 20260906054234 | 59 | 1 | 4.0 | 9.0 | 0.00 | 0.01 | 0.01 | 77 | 1023.6 |
| 20260906053730 | 59 | 3 | 4.0 | 8.0 | 0.00 | 0.01 | 0.01 | 77 | 1023.5 |
| 20260906053226 | 59 | 327 | 4.0 | 8.0 | 0.00 | 0.01 | 0.01 | 76 | 1023.3 |
| 20260906052721 | 59 | 333 | 3.0 | 6.0 | 0.00 | 0.01 | 0.01 | 75 | 1023.3 |
| 20260906052217 | 59 | 315 | 3.0 | 8.0 | 0.00 | 0.01 | 0.01 | 74 | 1023.0 |
| 20260906051714 | 60 | 3 | 5.0 | 7.0 | 0.00 | 0.01 | 0.01 | 74 | 1023.3 |
| 20260906051213 | 60 | 341 | 4.0 | 6.0 | 0.00 | 0.01 | 0.01 | 74 | 1023.0 |
| 20260906050708 | 59 | 20 | 5.0 | 8.0 | 0.00 | 0.01 | 0.01 | 74 | 1023.2 |
| 20260906050203 | 59 | 352 | 4.0 | 8.0 | 0.00 | 0.01 | 0.01 | 74 | 1022.8 |
| 20260906045702 | 59 | 324 | 5.0 | 7.0 | 0.00 | 0.01 | 0.01 | 74 | 1022.7 |
| 20260906045157 | 59 | 333 | 4.0 | 7.0 | 0.00 | 0.01 | 0.01 | 75 | 1022.9 |
| 20260906044653 | 59 | 320 | 4.0 | 8.0 | 0.00 | 0.01 | 0.01 | 75 | 1022.7 |
| 20260906044148 | 59 | 344 | 4.0 | 7.0 | 0.00 | 0.01 | 0.01 | 75 | 1022.7 |
| 20260906043644 | 59 | 325 | 5.0 | 11.0 | 0.00 | 0.01 | 0.01 | 75 | 1022.9 |
| 20260906043139 | 59 | 17 | 8.0 | 11.0 | 0.00 | 0.01 | 0.01 | 75 | 1022.8 |
| 20260906042639 | 59 | 344 | 8.0 | 13.0 | 0.00 | 0.01 | 0.01 | 75 | 1023.5 |
| 20260906042133 | 60 | 334 | 7.0 | 9.0 | 0.00 | 0.01 | 0.01 | 74 | 1023.0 |
| 20260906041630 | 60 | 336 | 4.0 | 9.0 | 0.00 | 0.01 | 0.01 | 73 | 1022.2 |
| 20260906041130 | 60 | 359 | 6.0 | 11.0 | 0.00 | 0.01 | 0.01 | 73 | 1022.4 |
| 20260906040625 | 60 | 336 | 4.0 | 7.0 | 0.00 | 0.01 | 0.01 | 73 | 1022.2 |
| 20260906040121 | 60 | 15 | 4.0 | 11.0 | 0.00 | 0.01 | 0.01 | 72 | 1021.8 |
| 20260906035616 | 60 | 325 | 6.0 | 9.0 | 0.00 | 0.01 | 0.01 | 71 | 1022.0 |
| 20260906035111 | 60 | 7 | 6.0 | 9.0 | 0.00 | 0.01 | 0.01 | 70 | 1021.7 |
| 20260906034611 | 60 | 330 | 5.0 | 11.0 | 0.00 | 0.01 | 0.01 | 70 | 1022.1 |
| 20260906034106 | 60 | 6 | 6.0 | 9.0 | 0.00 | 0.01 | 0.01 | 69 | 1022.2 |
| 20260906033602 | 60 | 345 | 6.0 | 10.0 | 0.00 | 0.01 | 0.01 | 68 | 1022.2 |
| 20260906033057 | 61 | 10 | 8.0 | 13.0 | 0.00 | 0.01 | 0.01 | 68 | 1022.3 |
| 20260906032554 | 61 | 349 | 6.0 | 9.0 | 0.00 | 0.01 | 0.01 | 67 | 1022.5 |
| 20260906032053 | 61 | 306 | 4.0 | 10.0 | 0.00 | 0.01 | 0.01 | 67 | 1022.7 |
| 20260906031549 | 61 | 321 | 6.0 | 10.0 | 0.00 | 0.01 | 0.01 | 66 | 1022.2 |
| 20260906031044 | 61 | 344 | 4.0 | 13.0 | 0.00 | 0.01 | 0.01 | 66 | 1022.3 |
| 20260906030544 | 61 | 324 | 8.0 | 10.0 | 0.00 | 0.01 | 0.01 | 66 | 1022.2 |
| 20260906030044 | 62 | 332 | 7.0 | 9.0 | 0.00 | 0.01 | 0.01 | 65 | 1022.7 |
| 20260906025543 | 62 | 5 | 8.0 | 10.0 | 0.00 | 0.01 | 0.01 | 65 | 1022.5 |
| 20260906025042 | 62 | 303 | 5.0 | 7.0 | 0.00 | 0.01 | 0.01 | 65 | 1021.4 |
| 20260906024537 | 62 | 316 | 5.0 | 13.0 | 0.00 | 0.01 | 0.01 | 65 | 1021.1 |
| 20260906024037 | 62 | 323 | 6.0 | 9.0 | 0.00 | 0.01 | 0.01 | 66 | 1021.0 |
| 20260906023533 | 62 | 351 | 8.0 | 10.0 | 0.00 | 0.01 | 0.01 | 66 | 1020.9 |
| 20260906023028 | 62 | 300 | 4.0 | 8.0 | 0.00 | 0.01 | 0.01 | 65 | 1021.1 |
| 20260906022523 | 62 | 222 | 6.0 | 9.0 | 0.00 | 0.01 | 0.01 | 64 | 1020.9 |
| 20260906022019 | 62 | 340 | 5.0 | 8.0 | 0.00 | 0.01 | 0.01 | 64 | 1020.8 |
| 20260906021515 | 63 | 228 | 3.0 | 8.0 | 0.00 | 0.01 | 0.01 | 63 | 1021.1 |
| 20260906021008 | 63 | 281 | 2.0 | 10.0 | 0.00 | 0.01 | 0.01 | 62 | 1021.0 |
| 20260906020508 | 64 | 341 | 4.0 | 7.0 | 0.00 | 0.01 | 0.01 | 61 | 1020.8 |
| 20260906020007 | 64 | 330 | 3.0 | 10.0 | 0.00 | 0.01 | 0.01 | 60 | 1020.6 |
| 20260906015506 | 65 | 315 | 3.0 | 7.0 | 0.00 | 0.01 | 0.01 | 59 | 1020.8 |
| 20260906015007 | 65 | 275 | 4.0 | 7.0 | 0.00 | 0.01 | 0.01 | 58 | 1020.9 |
| 20260906014501 | 66 | 315 | 3.0 | 7.0 | 0.00 | 0.01 | 0.01 | 57 | 1020.8 |
| 20260906013957 | 66 | 261 | 5.0 | 8.0 | 0.00 | 0.01 | 0.01 | 57 | 1021.1 |
| 20260906013452 | 66 | 327 | 6.0 | 9.0 | 0.00 | 0.01 | 0.01 | 56 | 1020.4 |
| 20260906012943 | 67 | 15 | 2.0 | 6.0 | 0.00 | 0.01 | 0.01 | 55 | 1020.8 |
| 20260906012442 | 67 | 318 | 5.0 | 8.0 | 0.00 | 0.01 | 0.01 | 55 | 1020.9 |
| 20260906011942 | 68 | 316 | 5.0 | 8.0 | 0.00 | 0.01 | 0.01 | 54 | 1020.9 |
| 20260906011437 | 68 | 309 | 4.0 | 8.0 | 0.00 | 0.01 | 0.01 | 52 | 1021.0 |
| 20260906010932 | 69 | 272 | 2.0 | 2.0 | 0.00 | 0.01 | 0.01 | 51 | 1020.9 |
| 20260906010428 | 69 | 2 | 3.0 | 7.0 | 0.00 | 0.01 | 0.01 | 50 | 1021.0 |
| 20260906005924 | 70 | 311 | 5.0 | 9.0 | 0.00 | 0.01 | 0.01 | 49 | 1020.9 |
| 20260906005423 | 70 | 329 | 4.0 | 9.0 | 0.00 | 0.01 | 0.01 | 48 | 1020.9 |
| 20260906004922 | 71 | 356 | 6.0 | 8.0 | 0.00 | 0.01 | 0.01 | 47 | 1021.1 |
| 20260906004416 | 72 | 332 | 4.0 | 8.0 | 0.00 | 0.01 | 0.01 | 47 | 1021.0 |
| 20260906003912 | 72 | 302 | 4.0 | 7.0 | 0.00 | 0.01 | 0.01 | 44 | 1021.1 |
| 20260906003407 | 73 | 355 | 3.0 | 8.0 | 0.00 | 0.01 | 0.01 | 42 | 1020.9 |
| 20260906002902 | 73 | 289 | 4.0 | 8.0 | 0.00 | 0.01 | 0.01 | 42 | 1020.9 |
| 20260906002402 | 75 | 335 | 4.0 | 7.0 | 0.00 | 0.01 | 0.01 | 40 | 1021.2 |
| 20260906001857 | 75 | 345 | 6.0 | 9.0 | 0.00 | 0.01 | 0.01 | 40 | 1021.0 |
| 20260906001354 | 75 | 315 | 3.0 | 9.0 | 0.00 | 0.01 | 0.01 | 40 | 1021.1 |
| 20260906000853 | 76 | 283 | 4.0 | 8.0 | 0.00 | 0.01 | 0.01 | 40 | 1021.0 |
| 20260906000355 | 76 | 312 | 4.0 | 6.0 | 0.00 | 0.01 | 0.01 | 39 | 1021.1 |
| 20260905235848 | 77 | 347 | 4.0 | 6.0 | 0.00 | 0.01 | 0.01 | 38 | 1021.0 |
| 20260905235343 | 75 | 339 | 3.0 | 4.0 | 0.00 | 0.01 | 0.01 | 38 | 1021.0 |
| 20260905234838 | 75 | 14 | 1.0 | 2.0 | 0.00 | 0.01 | 0.01 | 36 | 1021.1 |
| 20260905234333 | 76 | 356 | 3.0 | 4.0 | 0.00 | 0.01 | 0.01 | 35 | 1021.0 |
| 20260905233829 | 76 | 273 | 0.0 | 2.0 | 0.00 | 0.01 | 0.01 | 36 | 1021.0 |
| 20260905233323 | 76 | 36 | 2.0 | 7.0 | 0.00 | 0.01 | 0.01 | 35 | 1021.0 |
| 20260905232822 | 76 | 51 | 4.0 | 7.0 | 0.00 | 0.01 | 0.01 | 35 | 1021.1 |
| 20260905232319 | 75 | 292 | 1.0 | 2.0 | 0.00 | 0.01 | 0.01 | 36 | 1021.2 |
| 20260905231814 | 76 | 329 | 2.0 | 3.0 | 0.00 | 0.01 | 0.01 | 36 | 1021.2 |
| 20260905231309 | 79 | 292 | 1.0 | 4.0 | 0.00 | 0.01 | 0.01 | 34 | 1021.1 |
| 20260905230806 | 79 | 325 | 1.0 | 4.0 | 0.00 | 0.01 | 0.01 | 33 | 1021.0 |
| 20260905230303 | 78 | 247 | 0.0 | 2.0 | 0.00 | 0.01 | 0.01 | 33 | 1021.0 |
| 20260905225803 | 79 | 225 | 1.0 | 2.0 | 0.00 | 0.01 | 0.01 | 32 | 1021.1 |
| 20260905225258 | 78 | 303 | 1.0 | 6.0 | 0.00 | 0.01 | 0.01 | 33 | 1021.1 |
| 20260905224757 | 79 | 326 | 3.0 | 7.0 | 0.00 | 0.01 | 0.01 | 33 | 1021.0 |
| 20260905224253 | 78 | 304 | 2.0 | 6.0 | 0.00 | 0.01 | 0.01 | 33 | 1020.9 |
| 20260905223749 | 78 | 358 | 4.0 | 7.0 | 0.00 | 0.01 | 0.01 | 33 | 1021.0 |
| 20260905223246 | 79 | 348 | 5.0 | 7.0 | 0.00 | 0.01 | 0.01 | 33 | 1021.1 |
| 20260905222741 | 78 | 273 | 1.0 | 3.0 | 0.00 | 0.01 | 0.01 | 33 | 1021.2 |
| 20260905222240 | 78 | 337 | 4.0 | 8.0 | 0.00 | 0.01 | 0.01 | 34 | 1021.0 |
| 20260905221736 | 78 | 345 | 2.0 | 4.0 | 0.00 | 0.01 | 0.01 | 34 | 1021.3 |
| 20260905221233 | 78 | 45 | 1.0 | 4.0 | 0.00 | 0.01 | 0.01 | 33 | 1021.4 |
| 20260905220728 | 79 | 347 | 5.0 | 7.0 | 0.00 | 0.01 | 0.01 | 33 | 1021.4 |
| 20260905220224 | 77 | 314 | 4.0 | 14.0 | 0.00 | 0.01 | 0.01 | 34 | 1021.4 |
| 20260905215723 | 78 | 63 | 4.0 | 7.0 | 0.00 | 0.01 | 0.01 | 34 | 1021.4 |
| 20260905215220 | 78 | 306 | 2.0 | 4.0 | 0.00 | 0.01 | 0.01 | 34 | 1021.4 |
| 20260905214715 | 78 | 306 | 4.0 | 8.0 | 0.00 | 0.01 | 0.01 | 34 | 1021.6 |
| 20260905214210 | 78 | 329 | 3.0 | 8.0 | 0.00 | 0.01 | 0.01 | 34 | 1021.4 |
| 20260905213705 | 77 | 339 | 2.0 | 4.0 | 0.00 | 0.01 | 0.01 | 35 | 1021.5 |
| 20260905213201 | 77 | 42 | 5.0 | 7.0 | 0.00 | 0.01 | 0.01 | 34 | 1021.5 |
| 20260905212656 | 77 | 62 | 6.0 | 9.0 | 0.00 | 0.01 | 0.01 | 34 | 1021.6 |
| 20260905212155 | 78 | 276 | 1.0 | 6.0 | 0.00 | 0.01 | 0.01 | 33 | 1021.5 |
| 20260905211650 | 78 | 273 | 0.0 | 3.0 | 0.00 | 0.01 | 0.01 | 34 | 1021.7 |
| 20260905211146 | 77 | 238 | 0.0 | 3.0 | 0.00 | 0.01 | 0.01 | 35 | 1021.6 |
| 20260905210643 | 77 | 264 | 2.0 | 6.0 | 0.00 | 0.01 | 0.01 | 35 | 1021.8 |
| 20260905210142 | 76 | 314 | 5.0 | 7.0 | 0.00 | 0.01 | 0.01 | 35 | 1021.8 |
| 20260905205641 | 75 | 265 | 1.0 | 6.0 | 0.00 | 0.01 | 0.01 | 35 | 1021.8 |
| 20260905205141 | 77 | 245 | 1.0 | 4.0 | 0.00 | 0.01 | 0.01 | 35 | 1021.8 |
| 20260905204640 | 76 | 72 | 3.0 | 7.0 | 0.00 | 0.01 | 0.01 | 36 | 1021.8 |
| 20260905204136 | 75 | 5 | 2.0 | 4.0 | 0.00 | 0.01 | 0.01 | 38 | 1021.7 |
| 20260905203637 | 75 | 7 | 2.0 | 3.0 | 0.00 | 0.01 | 0.01 | 37 | 1022.0 |
| 20260905203132 | 75 | 358 | 3.0 | 9.0 | 0.00 | 0.01 | 0.01 | 37 | 1022.1 |
| 20260905202628 | 77 | 48 | 0.0 | 4.0 | 0.00 | 0.01 | 0.01 | 36 | 1022.1 |
| 20260905202123 | 74 | 260 | 1.0 | 4.0 | 0.00 | 0.01 | 0.01 | 38 | 1022.2 |
| 20260905201618 | 75 | 303 | 2.0 | 3.0 | 0.00 | 0.01 | 0.01 | 38 | 1022.0 |
| 20260905201118 | 75 | 340 | 4.0 | 4.0 | 0.00 | 0.01 | 0.01 | 38 | 1022.4 |
| 20260905200614 | 76 | 277 | 3.0 | 4.0 | 0.00 | 0.01 | 0.01 | 37 | 1022.2 |
| 20260905200109 | 75 | 330 | 4.0 | 6.0 | 0.00 | 0.01 | 0.01 | 38 | 1022.4 |
| 20260905195607 | 73 | 145 | 1.0 | 3.0 | 0.00 | 0.01 | 0.01 | 39 | 1022.3 |
| 20260905195103 | 72 | 266 | 1.0 | 7.0 | 0.00 | 0.01 | 0.01 | 41 | 1022.3 |
| 20260905194602 | 73 | 332 | 2.0 | 6.0 | 0.00 | 0.01 | 0.01 | 41 | 1022.4 |
| 20260905194102 | 74 | 314 | 4.0 | 7.0 | 0.00 | 0.01 | 0.01 | 40 | 1022.4 |
| 20260905193557 | 73 | 274 | 1.0 | 4.0 | 0.00 | 0.01 | 0.01 | 40 | 1022.5 |
| 20260905193052 | 73 | 339 | 4.0 | 8.0 | 0.00 | 0.01 | 0.01 | 41 | 1022.5 |
| 20260905192547 | 72 | 55 | 1.0 | 4.0 | 0.00 | 0.01 | 0.01 | 42 | 1022.5 |
| 20260905192044 | 72 | 291 | 1.0 | 4.0 | 0.00 | 0.01 | 0.01 | 41 | 1022.6 |
| 20260905191542 | 72 | 323 | 4.0 | 7.0 | 0.00 | 0.01 | 0.01 | 42 | 1022.6 |
| 20260905191042 | 73 | 334 | 3.0 | 8.0 | 0.00 | 0.01 | 0.01 | 43 | 1022.6 |
| 20260905190540 | 73 | 264 | 2.0 | 4.0 | 0.00 | 0.01 | 0.01 | 41 | 1022.6 |
| 20260905190039 | 72 | 355 | 4.0 | 9.0 | 0.00 | 0.01 | 0.01 | 43 | 1022.9 |
| 20260905185539 | 72 | 24 | 0.0 | 7.0 | 0.00 | 0.01 | 0.01 | 40 | 1022.8 |
| 20260905185038 | 72 | 290 | 3.0 | 6.0 | 0.00 | 0.01 | 0.01 | 43 | 1022.8 |
| 20260905184539 | 71 | 318 | 1.0 | 6.0 | 0.00 | 0.01 | 0.01 | 42 | 1022.8 |
| 20260905184038 | 71 | 333 | 6.0 | 11.0 | 0.00 | 0.01 | 0.01 | 43 | 1023.0 |
| 20260905183537 | 72 | 259 | 1.0 | 6.0 | 0.00 | 0.01 | 0.01 | 45 | 1022.8 |
| 20260905183033 | 72 | 260 | 2.0 | 6.0 | 0.00 | 0.01 | 0.01 | 45 | 1022.9 |
| 20260905182533 | 70 | 262 | 2.0 | 6.0 | 0.00 | 0.01 | 0.01 | 47 | 1023.2 |
| 20260905182032 | 71 | 319 | 3.0 | 7.0 | 0.00 | 0.01 | 0.01 | 46 | 1023.3 |
| 20260905181527 | 70 | 349 | 4.0 | 4.0 | 0.00 | 0.01 | 0.01 | 50 | 1023.2 |
| 20260905181026 | 70 | 12 | 5.0 | 6.0 | 0.00 | 0.01 | 0.01 | 50 | 1023.2 |
| 20260905180521 | 70 | 335 | 4.0 | 6.0 | 0.00 | 0.01 | 0.01 | 49 | 1023.4 |
| 20260905180017 | 70 | 304 | 2.0 | 4.0 | 0.00 | 0.01 | 0.01 | 50 | 1023.2 |
| 20260905175516 | 70 | 82 | 2.0 | 4.0 | 0.00 | 0.01 | 0.01 | 49 | 1023.3 |
| 20260905175012 | 68 | 325 | 2.0 | 4.0 | 0.00 | 0.01 | 0.01 | 51 | 1023.7 |
| 20260905174507 | 68 | 345 | 4.0 | 6.0 | 0.00 | 0.01 | 0.01 | 51 | 1023.4 |
| 20260905174003 | 68 | 332 | 1.0 | 3.0 | 0.00 | 0.01 | 0.01 | 53 | 1023.4 |
| 20260905173459 | 69 | 295 | 0.0 | 4.0 | 0.00 | 0.01 | 0.01 | 50 | 1023.2 |
| 20260905172954 | 68 | 326 | 3.0 | 6.0 | 0.00 | 0.01 | 0.01 | 51 | 1023.3 |
| 20260905172452 | 68 | 48 | 2.0 | 3.0 | 0.00 | 0.01 | 0.01 | 52 | 1023.3 |
| 20260905171948 | 67 | 316 | 3.0 | 4.0 | 0.00 | 0.01 | 0.01 | 56 | 1023.6 |
| 20260905171444 | 66 | 308 | 1.0 | 6.0 | 0.00 | 0.01 | 0.01 | 56 | 1023.7 |
| 20260905170940 | 66 | 340 | 4.0 | 8.0 | 0.00 | 0.01 | 0.01 | 57 | 1023.5 |
| 20260905170436 | 66 | 316 | 5.0 | 9.0 | 0.00 | 0.01 | 0.01 | 57 | 1023.5 |
| 20260905165936 | 66 | 280 | 2.0 | 7.0 | 0.00 | 0.01 | 0.01 | 56 | 1023.6 |
| 20260905165431 | 66 | 317 | 6.0 | 8.0 | 0.00 | 0.01 | 0.01 | 59 | 1023.4 |
| 20260905164926 | 65 | 353 | 4.0 | 6.0 | 0.00 | 0.01 | 0.01 | 61 | 1023.3 |
| 20260905164425 | 65 | 315 | 5.0 | 6.0 | 0.00 | 0.01 | 0.01 | 61 | 1023.5 |
| 20260905163920 | 64 | 312 | 1.0 | 6.0 | 0.00 | 0.01 | 0.01 | 61 | 1023.4 |